Kamloops Aut, British Columbia

12:21 AM PDT on August 27, 2016 (GMT -0700)
Kamloops

Weather History for CYKA - November, 2012

Change the Weather History Date:

Friday, November 16, 2012

  Actual Average Record
Temperature  
Mean Temperature 38 °F -  
Max Temperature 46 °F 39 °F 57 °F (1998)
Min Temperature 30 °F 30 °F 7 °F (2014)
Degree Days  
Heating Degree Days 27    
Moisture  
Dew Point 31 °F    
Average Humidity 72    
Maximum Humidity 93    
Minimum Humidity 44    
Precipitation  
Precipitation 0.00 in - - ()
Sea Level Pressure  
Sea Level Pressure 29.92 in    
Wind  
Wind Speed 8 mph ()    
Max Wind Speed 17 mph    
Max Gust Speed 18 mph    
Averages and records for this station are not official NWS values.
T = Trace of Precipitation, MM = Missing Value Source: Averaged Metar Reports

Daily Weather History Graph

Daily Weather History Graph

Search for Another Location

Airport or City:

Trip Planner

Search our weather history database for the weather conditions in past years. The results will help you decide how hot, cold, wet, or windy it might be!

Date:

Astronomy

Nov. 16, 2012 Rise Set
Actual Time 7:19 AM PST 4:13 PM PST
Civil Twilight 6:43 AM PST 4:49 PM PST
Nautical Twilight 6:03 AM PST 5:29 PM PST
Astronomical Twilight 5:24 AM PST 6:08 PM PST
Moon 10:24 AM PST (11/16) 7:14 PM PST (11/16)
Length of Visible Light 10h 06m
Length of Day
8h 53m
Waxing Crescent, 12% of the Moon is Illuminated
Nov 16
Waxing Crescent
Nov 20
First Quarter
Nov 28
Full
Dec 6
Last Quarter
Dec 13
New

Hourly Weather History & Observations

Time (PST) Temp. Windchill Dew Point Humidity Pressure Visibility Wind Dir Wind Speed Gust Speed Precip Events Conditions
12:00 AM 33.8 °F 25.3 °F 30.2 °F 87% 30.01 in 40.0 mi East 11.5 mph - N/A   Mostly Cloudy
1:00 AM 37.4 °F 29.3 °F 32.0 °F 81% 29.98 in 40.0 mi East 12.7 mph - N/A   Mostly Cloudy
2:00 AM 35.6 °F 28.6 °F 32.0 °F 87% 29.98 in 40.0 mi East 9.2 mph - N/A   Mostly Cloudy
3:00 AM 33.8 °F 30.8 °F 30.2 °F 87% 29.98 in 40.0 mi ENE 3.5 mph - N/A   Mostly Cloudy
4:00 AM 33 °F - 29 °F 82% 29.97 in 37 mi Calm Calm - -   Scattered Clouds
4:00 AM 32.0 °F - 30.2 °F 93% 29.97 in 40.0 mi NNE 2.3 mph - N/A   Mostly Cloudy
5:00 AM 33.8 °F 25.3 °F 30.2 °F 87% 29.97 in 40.0 mi East 11.5 mph - N/A   Scattered Clouds
6:00 AM 35.6 °F 28.6 °F 30.2 °F 81% 29.95 in 40.0 mi East 9.2 mph - N/A   Scattered Clouds
7:00 AM 33.8 °F 26.4 °F 30.2 °F 87% 29.96 in 40.0 mi East 9.2 mph - N/A   Mostly Cloudy
8:00 AM 35.6 °F 28.0 °F 30.2 °F 81% 29.96 in 40.0 mi East 10.4 mph - N/A   Scattered Clouds
9:00 AM 37.4 °F 30.3 °F 32.0 °F 81% 29.96 in 40.0 mi East 10.4 mph - N/A   Scattered Clouds
10:00 AM 39 °F - 32 °F 66% 29.95 in 37 mi ENE 9.2 mph - -   Scattered Clouds
10:00 AM 39.2 °F 33.0 °F 32.0 °F 75% 29.95 in 40.0 mi ENE 9.2 mph - N/A   Mostly Cloudy
11:00 AM 41.0 °F 34.3 °F 32.0 °F 70% 29.94 in 40.0 mi ENE 11.5 mph - N/A   Mostly Cloudy
12:00 PM 44.6 °F 39.7 °F 32.0 °F 61% 29.91 in 40.0 mi East 9.2 mph - N/A   Mostly Cloudy
1:00 PM 46.4 °F 40.4 °F 30.2 °F 53% 29.89 in 40.0 mi East 13.8 mph - N/A   Mostly Cloudy
2:00 PM 46.4 °F 39.5 °F 30.2 °F 53% 29.88 in 40.0 mi East 17.3 mph - N/A   Mostly Cloudy
3:00 PM 46.4 °F 40.7 °F 30.2 °F 53% 29.87 in 40.0 mi ESE 12.7 mph 18.4 mph N/A   Mostly Cloudy
4:00 PM 44 °F - 29 °F 44% 29.88 in 37 mi ENE 8.1 mph - -   Scattered Clouds
4:00 PM 44.6 °F 40.2 °F 30.2 °F 57% 29.88 in 40.0 mi ENE 8.1 mph - N/A   Mostly Cloudy
5:00 PM 42.8 °F 37.5 °F 32.0 °F 66% 29.88 in 40.0 mi NE 9.2 mph - N/A   Mostly Cloudy
6:00 PM 42.8 °F 37.0 °F 32.0 °F 66% 29.88 in 40.0 mi NE 10.4 mph - N/A   Mostly Cloudy
7:00 PM 41.0 °F 34.7 °F 32.0 °F 70% 29.88 in 40.0 mi NE 10.4 mph - N/A   Mostly Cloudy
8:00 PM 41.0 °F 35.2 °F 32.0 °F 70% 29.88 in 40.0 mi ENE 9.2 mph - N/A   Mostly Cloudy
9:00 PM 41.0 °F 34.7 °F 32.0 °F 70% 29.87 in 40.0 mi East 10.4 mph - N/A   Overcast
10:00 PM 40 °F - 32 °F 63% 29.86 in 37 mi East 6.9 mph - -   Overcast
10:00 PM 41.0 °F 36.4 °F 32.0 °F 70% 29.86 in 40.0 mi East 6.9 mph - N/A   Overcast
11:00 PM 41.0 °F 35.2 °F 33.8 °F 76% 29.85 in 40.0 mi East 9.2 mph - N/A   Mostly Cloudy